Location: Unspecified
(35.7250°N, 0.0000°E)
Time: 02:57:16
(UTC+00:00)

Vanguard 1 - Pass Details

Date: 29 June 2019
Orbit: 653 x 3830 km, 34.3° (Epoch: 18 July)

Event Time Altitude Azimuth Distance (km) Brightness Sun altitude
Rises 08:21:47 0° 278° (W) 5,226 13.3 40.8°
Reaches altitude 10° 08:28:25 10° 252° (WSW) 3,430 12.5 42.2°
Maximum altitude 08:31:12 12° 232° (SW) 2,955 12.3 42.7°
Drops below altitude 10° 08:33:36 10° 211° (SSW) 2,832 12.3 43.2°
Sets 08:37:44 0° 178° (S) 3,357 12.9 44.1°
